sat.trackr.live / text

‹ back to catalog

2024-205B

NORAD 61895 · 2024-205B

PAYLOAD ACTIVE UNKNOWN

§ Identity

Operator
Country
PRC
Launch date
2024-11-11
Launch site
JSC
Launch vehicle
Mass (kg)
RCS (m²)

External: N2YO · Heavens-Above · Gunter

§ Orbital elements

Epoch: 2026-05-25T03:55:57.918720Z

Period
94.13 min
Inclination
97.4137°
Eccentricity
0.0011682
Mean motion
15.29857601 rev/d
Perigee alt
468.2 km
Apogee alt
484.2 km
Semi-major
6,854.4 km
B*
4.3365e-4
RAAN
222.8623°
Arg perigee
115.7559°
Mean anomaly
244.4889°
Rev number
8,516

§ Raw data

2024-205B1 61895U 24205B   26145.16386480  .00012494  00000+0  43365-3 0  99992 61895  97.4137 222.8623 0011682 115.7559 244.4889 15.29857601 85161

JSON: /api/v1/satellites/61895 · /tle

For live sub-satellite position, see the globe view (requires WebGL).

§ Visibility from observer

Set your observer location to see the next 7 days of passes ≥ 10°. The values pass through the URL so the page stays shareable.

No JS? Fill the form by hand. The geolocation button needs JavaScript.